Location: Unspecified
(43.3830°N, 0.0000°E)
Time: 08:21:41
(UTC+00:00)

N. Korean satellite - Pass Details

Date: 25 November 2020
Orbit: 453 x 502 km, 97.2° (Epoch: 16 January)

Event Time Altitude Azimuth Distance (km) Brightness Sun altitude
Rises 17:24:23 0° 197° (SSW) 2,452 10.7 -10.2°
Reaches altitude 10° 17:26:44 10° 213° (SSW) 1,585 10.0 -10.7°
Maximum altitude 17:29:25 21° 265° (W) 1,061 9.3 -11.1°
Drops below altitude 10° 17:32:07 10° 318° (NW) 1,602 9.5 -11.6°
Sets 17:34:31 0° 334° (NNW) 2,487 10.3 -12.0°
